Weather History for Cooperstown, ND

Change the Weather History Date:

Saturday, November 26, 2011

  Actual Average (KJMS) Record (KJMS)
Temperature  
Mean Temperature 29 °F 22 °F  
Max Temperature 32 °F 31 °F 62 °F (1914)
Min Temperature 26 °F 13 °F -19 °F (1996)
Degree Days  
Heating Degree Days 36 43  
Month to date heating degree days 938  
Since 1 July heating degree days 1905  
Cooling Degree Days 0 0  
Month to date cooling degree days 0  
Year to date cooling degree days 446  
Moisture  
Dew Point 28 °F    
Average Humidity 90    
Maximum Humidity 100    
Minimum Humidity 74    
Precipitation  
Precipitation 0.50 in 0.02 in 0.40 in (1953)
Month to date precipitation 0.57  
Year to date precipitation 18.31  
Sea Level Pressure  
Sea Level Pressure 30.06 in    
Wind  
Wind Speed 18 mph (NNW)    
Max Wind Speed 36 mph    
Max Gust Speed 43 mph    
Visibility 9 miles    
Events Rain , Snow    
T = Trace of Precipitation, MM = Missing Value Source: NWS Daily Summary

Daily Weather History Graph

Daily Weather History Graph

Search for Another Location

Airport:

Trip Planner

Search our weather history database for the weather conditions in past years. The results will help you decide how hot, cold, wet, or windy it might be!

Date:

Astronomy

Nov. 26, 2011 Rise Set
Actual Time 7:52 AM CST 4:46 PM CST
Civil Twilight 7:17 AM CST 5:21 PM CST
Nautical Twilight 6:39 AM CST 5:59 PM CST
Astronomical Twilight 6:02 AM CST 6:36 PM CST
Moon 9:29 AM CST (11/26) 6:15 PM CST (11/26)
Length of Visible Light 10h 03m
Length of Day
8h 54m
Waxing Crescent, 3% of the Moon is Illuminated
Nov 26
Waxing Crescent
Dec 2
First Quarter
Dec 10
Full
Dec 17
Last Quarter
Dec 24
New

Hourly Weather History & Observations

Time (CST) Temp. Windchill Dew Point Humidity Pressure Visibility Wind Dir Wind Speed Gust Speed Precip Events Conditions
12:35 AM 26.6 °F 16.8 °F 26.6 °F 100% 29.80 in 10.0 mi North 10.4 mph - N/A   Clear
12:55 AM 26.6 °F 15.2 °F 26.6 °F 100% 29.81 in 10.0 mi NNW 13.8 mph - N/A   Partly Cloudy
1:15 AM 28.4 °F 16.6 °F 28.4 °F 100% 29.82 in 10.0 mi NNW 16.1 mph - N/A   Mostly Cloudy
1:35 AM 28.4 °F 16.2 °F 28.4 °F 100% 29.83 in 10.0 mi NNW 17.3 mph 25.3 mph N/A   Overcast
1:55 AM 28.4 °F 16.2 °F 28.4 °F 100% 29.83 in 10.0 mi NNW 17.3 mph - N/A   Overcast
2:15 AM 30.2 °F 19.8 °F 30.2 °F 100% 29.85 in 10.0 mi NNW 13.8 mph 19.6 mph N/A   Overcast
2:35 AM 28.4 °F 17.0 °F 28.4 °F 100% 29.86 in 10.0 mi North 15.0 mph - N/A   Overcast
2:55 AM 28.4 °F 18.0 °F 28.4 °F 100% 29.87 in 10.0 mi NNW 12.7 mph - N/A   Overcast
3:15 AM 28.4 °F 18.5 °F 28.4 °F 100% 29.88 in 10.0 mi NW 11.5 mph - N/A   Overcast
3:35 AM 28.4 °F 16.6 °F 28.4 °F 100% 29.89 in 10.0 mi NW 16.1 mph - N/A   Overcast
3:55 AM 30.2 °F 19.8 °F 30.2 °F 100% 29.89 in 10.0 mi NNW 13.8 mph - N/A   Overcast
4:35 AM 32.0 °F 21.6 °F 30.2 °F 93% 29.91 in 8.0 mi NNW 15.0 mph - N/A   Overcast
4:55 AM 30.2 °F 19.8 °F 30.2 °F 100% 29.92 in 2.5 mi NNW 13.8 mph - 0.03 in Snow Light Snow
5:15 AM 30.2 °F 19.8 °F 30.2 °F 100% 29.93 in 1.8 mi NNW 13.8 mph 23.0 mph 0.19 in Snow Light Snow
5:35 AM 30.2 °F 20.2 °F 30.2 °F 100% 29.94 in 2.0 mi NW 12.7 mph - 0.39 in Snow Light Snow
5:55 AM 32.0 °F 22.1 °F 32.0 °F 100% 29.95 in 2.0 mi NW 13.8 mph - 0.47 in Snow Light Snow
6:15 AM 32.0 °F 21.6 °F 32.0 °F 100% 29.96 in 8.0 mi NW 15.0 mph - N/A Rain Light Rain
6:55 AM 32.0 °F 21.6 °F 32.0 °F 100% 29.98 in 7.0 mi NW 15.0 mph - N/A   Overcast
7:15 AM 32.0 °F 20.8 °F 32.0 °F 100% 29.99 in 6.0 mi NW 17.3 mph - N/A   Overcast
7:35 AM 32.0 °F 20.1 °F 32.0 °F 100% 29.99 in 7.0 mi NW 19.6 mph 24.2 mph N/A   Overcast
7:55 AM 32.0 °F 19.2 °F 32.0 °F 100% 30.00 in 7.0 mi NNW 23.0 mph 31.1 mph N/A   Overcast
8:15 AM 32.0 °F 18.9 °F 32.0 °F 100% 30.01 in 8.0 mi NNW 24.2 mph 31.1 mph N/A   Overcast
8:35 AM 32.0 °F 18.9 °F 30.2 °F 93% 30.03 in 7.0 mi NNW 24.2 mph 36.8 mph N/A   Overcast
9:15 AM 32.0 °F 19.5 °F 28.4 °F 87% 30.04 in 9.0 mi NNW 21.9 mph 33.4 mph N/A   Overcast
9:35 AM 32.0 °F 19.5 °F 28.4 °F 87% 30.04 in 10.0 mi NNW 21.9 mph 33.4 mph N/A   Overcast
9:55 AM 32.0 °F 19.5 °F 28.4 °F 87% 30.05 in 10.0 mi NNW 21.9 mph 31.1 mph N/A   Overcast
10:15 AM 32.0 °F 17.6 °F 28.4 °F 87% 30.06 in 10.0 mi NW 29.9 mph 35.7 mph N/A   Overcast
10:35 AM 32.0 °F 17.4 °F 28.4 °F 87% 30.06 in 10.0 mi NW 31.1 mph 42.6 mph N/A   Overcast
10:55 AM 32.0 °F 16.5 °F 28.4 °F 87% 30.07 in 10.0 mi NW 35.7 mph 42.6 mph N/A   Overcast
11:15 AM 32.0 °F 17.0 °F 28.4 °F 87% 30.07 in 10.0 mi NNW 33.4 mph 40.3 mph N/A   Overcast
11:35 AM 32.0 °F 17.9 °F 28.4 °F 87% 30.07 in 10.0 mi NNW 28.8 mph 38.0 mph N/A   Overcast
11:55 AM 32.0 °F 20.1 °F 28.4 °F 87% 30.08 in 10.0 mi NW 19.6 mph 35.7 mph N/A   Overcast
12:15 PM 32.0 °F 19.5 °F 30.2 °F 93% 30.08 in 10.0 mi NW 21.9 mph 33.4 mph N/A   Overcast
12:35 PM 32.0 °F 19.2 °F 30.2 °F 93% 30.08 in 10.0 mi NNW 23.0 mph 32.2 mph N/A   Overcast
1:15 PM 32.0 °F 18.6 °F 28.4 °F 87% 30.10 in 10.0 mi NW 25.3 mph 34.5 mph N/A   Overcast
1:55 PM 32.0 °F 18.9 °F 28.4 °F 87% 30.12 in 10.0 mi NW 24.2 mph 32.2 mph N/A   Overcast
2:15 PM 32.0 °F 18.6 °F 28.4 °F 87% 30.13 in 10.0 mi NW 25.3 mph 33.4 mph N/A   Overcast
2:35 PM 32.0 °F 20.1 °F 28.4 °F 87% 30.14 in 10.0 mi NW 19.6 mph 29.9 mph N/A   Overcast
2:55 PM 32.0 °F 18.9 °F 28.4 °F 87% 30.15 in 10.0 mi NW 24.2 mph 29.9 mph N/A   Overcast
3:15 PM 32.0 °F 20.1 °F 28.4 °F 87% 30.16 in 10.0 mi NW 19.6 mph 29.9 mph N/A   Overcast
3:35 PM 32.0 °F 19.5 °F 28.4 °F 87% 30.17 in 10.0 mi NW 21.9 mph 29.9 mph N/A   Overcast
3:55 PM 32.0 °F 18.9 °F 28.4 °F 87% 30.18 in 10.0 mi NW 24.2 mph 27.6 mph N/A   Overcast
4:15 PM 32.0 °F 19.8 °F 28.4 °F 87% 30.19 in 10.0 mi NW 20.7 mph 28.8 mph N/A   Overcast
4:35 PM 32.0 °F 19.5 °F 28.4 °F 87% 30.21 in 10.0 mi NW 21.9 mph 29.9 mph N/A   Overcast
4:55 PM 32.0 °F 20.1 °F 26.6 °F 80% 30.21 in 10.0 mi NW 19.6 mph 29.9 mph N/A   Overcast
5:15 PM 32.0 °F 20.5 °F 26.6 °F 80% 30.22 in 10.0 mi NW 18.4 mph 25.3 mph N/A   Overcast
5:35 PM 32.0 °F 20.8 °F 26.6 °F 80% 30.23 in 10.0 mi NW 17.3 mph 24.2 mph N/A   Overcast
6:15 PM 32.0 °F 20.5 °F 26.6 °F 80% 30.24 in 10.0 mi NW 18.4 mph 23.0 mph N/A   Overcast
6:35 PM 32.0 °F 20.8 °F 24.8 °F 75% 30.25 in 10.0 mi NNW 17.3 mph 33.4 mph N/A   Overcast
6:55 PM 30.2 °F 16.5 °F 24.8 °F 80% 30.25 in 10.0 mi NNW 24.2 mph 28.8 mph N/A   Overcast
7:15 PM 28.4 °F 14.7 °F 23.0 °F 80% 30.25 in 10.0 mi NNW 21.9 mph 28.8 mph N/A   Mostly Cloudy
7:35 PM 28.4 °F 14.4 °F 23.0 °F 80% 30.26 in 10.0 mi NNW 23.0 mph 27.6 mph N/A   Mostly Cloudy
7:55 PM 28.4 °F 15.4 °F 23.0 °F 80% 30.26 in 10.0 mi NNW 19.6 mph 28.8 mph N/A   Overcast
8:15 PM 28.4 °F 13.5 °F 23.0 °F 80% 30.27 in 10.0 mi NNW 26.5 mph 32.2 mph N/A   Overcast
8:35 PM 28.4 °F 16.6 °F 23.0 °F 80% 30.27 in 10.0 mi NNW 16.1 mph 23.0 mph N/A   Overcast
8:55 PM 28.4 °F 15.4 °F 21.2 °F 74% 30.27 in 10.0 mi NNW 19.6 mph 33.4 mph N/A   Overcast
9:15 PM 28.4 °F 15.4 °F 21.2 °F 74% 30.27 in 10.0 mi NNW 19.6 mph - N/A   Mostly Cloudy
9:35 PM 26.6 °F 14.7 °F 23.0 °F 86% 30.28 in 10.0 mi NNW 15.0 mph - N/A   Mostly Cloudy
10:35 PM 26.6 °F 13.4 °F 19.4 °F 74% 30.27 in 10.0 mi NNW 18.4 mph 28.8 mph N/A   Overcast
10:55 PM 26.6 °F 12.4 °F 21.2 °F 80% 30.28 in 10.0 mi NNW 21.9 mph - N/A   Overcast
11:55 PM 24.8 °F 11.9 °F 17.6 °F 74% 30.28 in 10.0 mi NNW 16.1 mph - N/A   Mostly Cloudy